Flag for U.S.A. Weather past 2 weeks in Syracuse, New York, U.S.A.

Now
31 °F

Light snow. Mostly cloudy.


Feels Like: 31 °F
Forecast: 24 / 34 °F
Wind: No wind

Location: Syracuse Hancock International Airport

Current Time: Dec 21, 2014 at 3:34:44 PM

Latest Report: Dec 21, 2014 at 2:54 PM


Visibility: 5 mi

Pressure: 30.30 "Hg

Humidity: 82%

Dew point: 26 °F

Location of SyracuseLocation

Historic Weather in Syracuse — Graph

°F

Syracuse temperature yesterday

Maximum temperature yesterday: 28 °F (at 11:54 AM)
Minimum temperature yesterday: 22 °F (at 7:54 PM)
Average temperature yesterday: 25 °F

Past Weeks' High & Low Weather Summary

 TemperatureHumidityPressure
High42 °F (Dec 16, 12:54 PM)100% (Dec 6, 1:54 PM)30.73 "Hg (Dec 6, 1:54 PM)
Low18 °F (Dec 8, 6:54 AM)32% (Dec 8, 1:54 PM)29.64 "Hg (Dec 11, 1:54 AM)
Average30 °F88%30.09 "Hg
* Reported Dec 6 1:54 PM — Dec 21 1:54 PM, Syracuse, Weather by CustomWeather, © 2014

Note: Actual official high and low records may vary slightly from our data, if they occured in-between our weather recording intervals... More about our weather records

Advertising

Syracuse weather history for previous 24 hours

 ConditionsComfort  
Time TempWeatherWind HumidityBarometerVisibility
1:54 PM
Dec 21
31 °FLight snow. Overcast.No wind79%30.30 "Hg5 mi
12:54 PM30 °FLight snow. Mostly cloudy.No wind82%30.32 "Hg7 mi
11:54 AM30 °FLight snow. Mostly cloudy.No wind82%30.33 "Hg7 mi
10:54 AM30 °FLight snow. Overcast.5 mph79%30.35 "Hg6 mi
9:54 AM29 °FLight snow. Mostly cloudy.No wind85%30.34 "Hg9 mi
8:54 AM28 °FMostly cloudy.No wind89%30.33 "Hg10 mi
7:54 AM27 °FOvercast.No wind89%30.32 "Hg10 mi
6:54 AM27 °FOvercast.3 mph89%30.31 "Hg10 mi
5:54 AM26 °FLight snow. Overcast.No wind92%30.30 "Hg9 mi
4:54 AM26 °FOvercast.3 mph92%30.29 "Hg10 mi
3:54 AM26 °FOvercast.3 mph88%30.30 "Hg10 mi
2:54 AM25 °FOvercast.3 mph92%30.30 "Hg10 mi
1:54 AM25 °FOvercast.5 mph92%30.29 "Hg10 mi
12:54 AM24 °FOvercast.3 mph91%30.29 "Hg10 mi
11:54 PM
Dec 20
24 °FOvercast.No wind91%30.30 "Hg10 mi
10:54 PM24 °FOvercast.3 mph91%30.30 "Hg10 mi
9:54 PM22 °FPassing clouds.No wind96%30.30 "Hg10 mi
8:54 PM22 °FPassing clouds.No wind92%30.30 "Hg10 mi
7:54 PM22 °FPassing clouds.3 mph92%30.31 "Hg10 mi
6:54 PM23 °FPassing clouds.3 mph92%30.30 "Hg10 mi
5:54 PM25 °FPassing clouds.No wind81%30.30 "Hg10 mi
4:54 PM25 °FPassing clouds.No wind78%30.29 "Hg10 mi
3:54 PM27 °FScattered clouds.5 mph75%30.27 "Hg10 mi
Weather by CustomWeather, © 2014

See weather overviewHow to use our weather pages